Regional Weather Roundup
Issued by NWS

Home | Current Version | Previous Version | Graphics & Text | Print | Product List | Glossary On
Versions: 1 2 3 4 5 6 7 8 9 10 11 12 13 14 15 16 17 18 19 20 21 22 23 24 25 26 27
000
ASUS45 KCYS 060710
RWRWY

WYOMING REGIONAL WEATHER ROUNDUP
NATIONAL WEATHER SERVICE CHEYENNE WY
1200 AM MST TUE DEC 06 2016

NOTE:  "FAIR" INDICATES FEW OR NO CLOUDS BELOW 12,000 FEET
WITH NO SIGNIFICANT WEATHER AND/OR OBSTRUCTIONS TO VISIBILITY.

WYZ001-060800-
YELLOWSTONE NATIONAL PARK

CITY           SKY/WX    TMP DP  RH WIND       PRES   REMARKS
LK YELLOWSTONE   N/A      0  -3  87 NW3       29.82F
W YELLOWSTONE  NOT AVBL

$$
WYZ002>013-054>058-071-098>099-060800-
NORTHERN WYOMING

CITY           SKY/WX    TMP DP  RH WIND       PRES   REMARKS
JACKSON        FAIR     -13 -15  92 N10       29.92F WCI -32
CODY           FAIR       3  -1  83 CALM      29.91F
GREYBULL       FAIR      10   4  76 SE6       29.99F WCI   0
WORLAND        FAIR       9   5  84 S3        29.98F
SHERIDAN       MOCLDY     6  -1  73 CALM      29.99R
BUFFALO        FAIR       7  -1  70 N9        29.92R WCI  -7
GILLETTE       FAIR       4   1  88 W14       29.94S WCI -14
HULETT         FAIR      10   1  67 SW9       29.93S WCI  -2
NEWCASTLE      FAIR       3   0  85 NW6       29.95R WCI  -8

$$
WYZ014>020-022>026-101>103-060800-
CENTRAL WYOMING

CITY           SKY/WX    TMP DP  RH WIND       PRES   REMARKS
BIG PINEY      FAIR     -12 -17  78 E9        29.92S WCI -30
PINEDALE       FAIR     -17 -22  76 W12       29.93S WCI -38
DUBOIS         FAIR      -2  -9  71 NW13      29.83F WCI -21
LANDER         FAIR       7  -8  50 S5        29.93S WCI  -2
RIVERTON       FAIR       8  -3  61 W12       29.93F WCI  -7
CASPER         FAIR       5  -1  76 SW17      29.94S WCI -14
DOUGLAS        FAIR       5   1  83 NW8       29.94F WCI  -8

$$
WYZ021-027>030-104>119-060800-
SOUTHERN WYOMING

CITY           SKY/WX    TMP DP  RH WIND       PRES   REMARKS
EVANSTON       FAIR       3 -17  39 S5        29.90F WCI  -6
KEMMERER         N/A     -6 -11  77 NW5       29.89F WCI -17
FORT BRIDGER   FAIR       2 -15  44 CALM      29.93F
ROCK SPRINGS   FAIR       2  -8  63 W7        29.93F WCI -11
DIXON          FAIR      -1  -9  69 NE3       30.00S
RAWLINS        FAIR       2  -9  60 SW7       29.91S WCI -11
SARATOGA       FAIR       3  -8  60 SW9       29.91F WCI -11
LARAMIE        FAIR       3 -10  54 NW9       29.85S WCI -12
CHEYENNE       FAIR      11  -8  42 W20G25    29.88F WCI  -7
TORRINGTON     FAIR      14   4  64 NW15      29.96S WCI  -1
PINE BLUFFS    FAIR      12   5  73 N9G18     29.95R WCI   0

$$




USA.gov is the U.S. government's official web portal to all federal, state and local government web resources and services.